Time,TemperatureF,DewpointF,PressureIn,WindDirection,WindDirectionDegrees,WindSpeedMPH,WindSpeedGustMPH,Humidity,HourlyPrecipIn,Conditions,Clouds,dailyrainin,SoftwareType,DateUTC
2013-07-02 00:01:00,73.6,72.4,29.97,SSE,149,2.0,11.0,96,-1.57,,,0.01,Weather View 32 v70,2013-07-02 04:01:00,
2013-07-02 00:02:00,73.6,72.4,29.97,SSE,149,1.0,11.0,96,-1.56,,,0.01,Weather View 32 v70,2013-07-02 04:02:00,
2013-07-02 00:07:00,73.7,72.5,29.96,SSE,149,0.0,11.0,96,-1.59,,,0.01,Weather View 32 v70,2013-07-02 04:07:00,
2013-07-02 00:12:00,73.7,72.5,29.97,SSE,148,3.0,11.0,96,-1.61,,,0.01,Weather View 32 v70,2013-07-02 04:12:00,
2013-07-02 00:17:00,73.6,72.4,29.96,SSE,147,0.0,11.0,96,-1.62,,,0.01,Weather View 32 v70,2013-07-02 04:17:00,
2013-07-02 00:22:00,73.6,72.4,29.96,SE,146,2.0,11.0,96,-1.63,,,0.01,Weather View 32 v70,2013-07-02 04:22:00,
2013-07-02 00:27:00,73.7,72.5,29.97,SE,146,2.0,10.0,96,-1.63,,,0.01,Weather View 32 v70,2013-07-02 04:27:00,
2013-07-02 00:32:00,73.7,72.5,29.96,SE,146,0.0,10.0,96,-1.63,,,0.01,Weather View 32 v70,2013-07-02 04:32:00,
2013-07-02 00:37:00,73.8,72.6,29.96,SE,144,0.0,8.0,96,-1.63,,,0.01,Weather View 32 v70,2013-07-02 04:37:00,
2013-07-02 00:42:00,74.1,72.9,29.96,SSW,203,3.0,8.0,96,-1.64,,,0.01,Weather View 32 v70,2013-07-02 04:42:00,
2013-07-02 00:47:00,74.6,73.4,29.96,SSW,200,0.0,12.0,96,-1.64,,,0.01,Weather View 32 v70,2013-07-02 04:47:00,
2013-07-02 00:52:00,74.8,73.6,29.96,SE,134,4.0,12.0,96,-1.64,,,0.01,Weather View 32 v70,2013-07-02 04:52:00,
2013-07-02 00:57:00,74.6,73.4,29.96,South,182,2.0,12.0,96,0.01,,,0.01,Weather View 32 v70,2013-07-02 04:57:00,
2013-07-02 01:02:00,73.9,72.4,29.96,SSW,200,0.0,12.0,95,0.00,,,0.01,Weather View 32 v70,2013-07-02 05:02:00,
2013-07-02 01:07:00,73.6,72.1,29.96,South,184,1.0,12.0,95,0.00,,,0.01,Weather View 32 v70,2013-07-02 05:07:00,
2013-07-02 01:12:00,73.5,72.0,29.96,SE,146,0.0,12.0,95,0.00,,,0.01,Weather View 32 v70,2013-07-02 05:12:00,
2013-07-02 01:17:00,73.6,72.1,29.96,SE,140,3.0,12.0,95,0.00,,,0.01,Weather View 32 v70,2013-07-02 05:17:00,
2013-07-02 01:22:00,73.8,72.3,29.96,SE,126,0.0,12.0,95,0.01,,,0.02,Weather View 32 v70,2013-07-02 05:22:00,
2013-07-02 01:27:00,73.8,72.3,29.96,SE,130,0.0,12.0,95,0.01,,,0.02,Weather View 32 v70,2013-07-02 05:27:00,
2013-07-02 01:32:00,73.9,72.4,29.96,ESE,120,4.0,12.0,95,0.01,,,0.02,Weather View 32 v70,2013-07-02 05:32:00,
2013-07-02 01:37:00,73.9,72.4,29.96,SE,131,9.0,12.0,95,0.01,,,0.02,Weather View 32 v70,2013-07-02 05:37:00,
2013-07-02 01:42:00,73.9,72.4,29.96,SE,137,0.0,12.0,95,0.01,,,0.02,Weather View 32 v70,2013-07-02 05:42:00,
2013-07-02 01:47:00,73.8,72.3,29.96,SE,133,4.0,11.0,95,0.01,,,0.02,Weather View 32 v70,2013-07-02 05:47:00,
2013-07-02 01:52:00,73.8,72.3,29.95,SE,131,4.0,10.0,95,0.01,,,0.02,Weather View 32 v70,2013-07-02 05:52:00,
2013-07-02 01:57:00,73.8,72.3,29.95,SE,144,0.0,10.0,95,0.01,,,0.02,Weather View 32 v70,2013-07-02 05:57:00,
2013-07-02 02:02:00,73.8,72.3,29.95,SE,129,4.0,10.0,95,0.01,,,0.02,Weather View 32 v70,2013-07-02 06:02:00,
2013-07-02 02:07:00,73.8,72.3,29.95,SE,129,2.0,10.0,95,0.01,,,0.02,Weather View 32 v70,2013-07-02 06:07:00,
2013-07-02 02:12:00,73.8,72.3,29.94,SE,127,4.0,10.0,95,0.01,,,0.02,Weather View 32 v70,2013-07-02 06:12:00,
2013-07-02 02:17:00,73.7,72.2,29.94,SE,135,0.0,10.0,95,0.01,,,0.02,Weather View 32 v70,2013-07-02 06:17:00,
2013-07-02 02:22:00,73.8,72.3,29.97,SSW,198,5.0,11.0,95,0.04,,,0.07,Weather View 32 v70,2013-07-02 06:22:00,
2013-07-02 02:27:00,73.7,72.2,29.97,SW,223,8.0,11.0,95,0.12,,,0.15,Weather View 32 v70,2013-07-02 06:27:00,
2013-07-02 02:32:00,73.3,71.8,29.97,SE,142,2.0,11.0,95,0.15,,,0.17,Weather View 32 v70,2013-07-02 06:32:00,
2013-07-02 02:37:00,73.4,71.9,29.97,South,186,3.0,12.0,95,0.19,,,0.21,Weather View 32 v70,2013-07-02 06:37:00,
2013-07-02 02:42:00,73.6,72.4,29.96,SSW,195,5.0,12.0,96,0.21,,,0.24,Weather View 32 v70,2013-07-02 06:42:00,
2013-07-02 02:47:00,73.6,72.1,29.96,SSW,200,1.0,12.0,95,0.23,,,0.26,Weather View 32 v70,2013-07-02 06:47:00,
2013-07-02 02:52:00,73.5,72.0,29.96,South,175,4.0,12.0,95,0.26,,,0.28,Weather View 32 v70,2013-07-02 06:52:00,
2013-07-02 02:57:00,73.4,71.9,29.95,SSW,205,0.0,12.0,95,0.27,,,0.29,Weather View 32 v70,2013-07-02 06:57:00,
2013-07-02 03:02:00,73.4,71.9,29.95,SSW,204,0.0,12.0,95,0.29,,,0.31,Weather View 32 v70,2013-07-02 07:02:00,
2013-07-02 03:07:00,73.6,72.4,29.95,South,187,1.0,12.0,96,0.31,,,0.33,Weather View 32 v70,2013-07-02 07:07:00,
2013-07-02 03:12:00,73.8,72.6,29.95,SSW,196,0.0,12.0,96,0.33,,,0.35,Weather View 32 v70,2013-07-02 07:12:00,
2013-07-02 03:17:00,74.1,72.9,29.95,SSW,197,0.0,12.0,96,0.36,,,0.38,Weather View 32 v70,2013-07-02 07:17:00,
2013-07-02 03:22:00,74.3,73.1,29.94,SSW,196,0.0,12.0,96,0.35,,,0.41,Weather View 32 v70,2013-07-02 07:22:00,
2013-07-02 03:27:00,74.4,73.2,29.94,SSW,198,0.0,12.0,96,0.29,,,0.43,Weather View 32 v70,2013-07-02 07:27:00,
2013-07-02 03:32:00,74.5,73.3,29.94,SSW,194,0.0,12.0,96,0.28,,,0.45,Weather View 32 v70,2013-07-02 07:32:00,
2013-07-02 03:37:00,74.5,73.3,29.94,SSW,194,0.0,12.0,96,0.28,,,0.44,Weather View 32 v70,2013-07-02 07:37:00,
2013-07-02 03:42:00,74.1,72.6,29.94,SSE,149,3.0,12.0,95,0.24,,,0.47,Weather View 32 v70,2013-07-02 07:42:00,
2013-07-02 03:47:00,74.0,72.5,29.95,SSE,147,2.0,12.0,95,0.23,,,0.48,Weather View 32 v70,2013-07-02 07:47:00,
2013-07-02 03:52:00,74.0,72.5,29.95,SE,138,5.0,7.0,95,0.21,,,0.49,Weather View 32 v70,2013-07-02 07:52:00,
2013-07-02 03:57:00,73.8,72.6,29.95,SE,127,2.0,7.0,96,0.20,,,0.49,Weather View 32 v70,2013-07-02 07:57:00,
2013-07-02 04:02:00,73.7,72.5,29.95,ESE,123,0.0,8.0,96,0.18,,,0.49,Weather View 32 v70,2013-07-02 08:02:00,
2013-07-02 04:07:00,73.6,72.4,29.95,SE,126,7.0,8.0,96,0.16,,,0.49,Weather View 32 v70,2013-07-02 08:07:00,
2013-07-02 04:12:00,73.7,72.5,29.95,SE,139,4.0,9.0,96,0.14,,,0.49,Weather View 32 v70,2013-07-02 08:12:00,
2013-07-02 04:17:00,73.7,72.5,29.95,SE,129,3.0,9.0,96,0.11,,,0.49,Weather View 32 v70,2013-07-02 08:17:00,
2013-07-02 04:22:00,73.7,72.5,29.95,ESE,123,4.0,10.0,96,0.08,,,0.49,Weather View 32 v70,2013-07-02 08:22:00,
2013-07-02 04:27:00,73.7,72.5,29.95,ESE,122,7.0,10.0,96,0.06,,,0.49,Weather View 32 v70,2013-07-02 08:27:00,
2013-07-02 04:32:00,73.7,72.5,29.95,SE,126,0.0,10.0,96,0.04,,,0.49,Weather View 32 v70,2013-07-02 08:32:00,
2013-07-02 04:37:00,73.7,72.5,29.95,SE,129,1.0,10.0,96,0.03,,,0.49,Weather View 32 v70,2013-07-02 08:37:00,
2013-07-02 04:42:00,73.6,72.4,29.95,SE,129,0.0,10.0,96,0.02,,,0.49,Weather View 32 v70,2013-07-02 08:42:00,
2013-07-02 04:47:00,73.6,72.4,29.96,SE,132,3.0,10.0,96,0.01,,,0.49,Weather View 32 v70,2013-07-02 08:47:00,
2013-07-02 04:52:00,73.5,72.3,29.96,SE,132,0.0,10.0,96,0.00,,,0.49,Weather View 32 v70,2013-07-02 08:52:00,
2013-07-02 04:57:00,73.4,72.2,29.96,SE,136,3.0,10.0,96,0.00,,,0.49,Weather View 32 v70,2013-07-02 08:57:00,
2013-07-02 05:02:00,73.2,72.0,29.96,SE,128,5.0,10.0,96,0.00,,,0.49,Weather View 32 v70,2013-07-02 09:02:00,
2013-07-02 05:07:00,73.2,72.0,29.95,SE,131,1.0,10.0,96,0.00,,,0.49,Weather View 32 v70,2013-07-02 09:07:00,
2013-07-02 05:12:00,73.2,72.0,29.95,SE,130,0.0,10.0,96,0.00,,,0.49,Weather View 32 v70,2013-07-02 09:12:00,
2013-07-02 05:17:00,73.1,71.9,29.96,SE,130,2.0,10.0,96,0.00,,,0.49,Weather View 32 v70,2013-07-02 09:17:00,
2013-07-02 05:22:00,73.1,71.9,29.96,SE,137,2.0,8.0,96,0.00,,,0.49,Weather View 32 v70,2013-07-02 09:22:00,
2013-07-02 05:27:00,73.1,71.9,29.95,SE,128,0.0,8.0,96,0.00,,,0.49,Weather View 32 v70,2013-07-02 09:27:00,
2013-07-02 05:32:00,73.1,71.9,29.96,SE,130,0.0,9.0,96,0.00,,,0.49,Weather View 32 v70,2013-07-02 09:32:00,
2013-07-02 05:37:00,73.2,72.0,29.96,SE,130,4.0,9.0,96,0.00,,,0.49,Weather View 32 v70,2013-07-02 09:37:00,
2013-07-02 05:42:00,73.2,72.0,29.96,SE,133,3.0,9.0,96,0.00,,,0.49,Weather View 32 v70,2013-07-02 09:42:00,
2013-07-02 05:47:00,73.3,71.8,29.97,SE,129,2.0,9.0,95,0.01,,,0.50,Weather View 32 v70,2013-07-02 09:47:00,
2013-07-02 05:52:00,73.3,71.8,29.97,SE,129,0.0,9.0,95,0.05,,,0.57,Weather View 32 v70,2013-07-02 09:52:00,
2013-07-02 05:57:00,73.2,71.7,29.97,SE,129,0.0,9.0,95,0.10,,,0.60,Weather View 32 v70,2013-07-02 09:57:00,
2013-07-02 06:02:00,73.2,71.7,29.97,SE,129,0.0,9.0,95,0.11,,,0.60,Weather View 32 v70,2013-07-02 10:02:00,
2013-07-02 06:07:00,73.1,71.6,29.97,SE,129,0.0,9.0,95,0.11,,,0.60,Weather View 32 v70,2013-07-02 10:07:00,
2013-07-02 06:12:00,73.1,71.6,29.97,SE,129,0.0,9.0,95,0.11,,,0.60,Weather View 32 v70,2013-07-02 10:12:00,
2013-07-02 06:17:00,73.0,71.5,29.97,SE,129,0.0,9.0,95,0.11,,,0.60,Weather View 32 v70,2013-07-02 10:17:00,
2013-07-02 06:22:00,72.9,71.4,29.98,SE,129,0.0,9.0,95,0.11,,,0.60,Weather View 32 v70,2013-07-02 10:22:00,
2013-07-02 06:27:00,72.9,71.4,29.98,ESE,110,0.0,9.0,95,0.11,,,0.60,Weather View 32 v70,2013-07-02 10:27:00,
2013-07-02 06:33:00,72.9,71.7,29.98,ESE,111,0.0,7.0,96,0.11,,,0.60,Weather View 32 v70,2013-07-02 10:33:00,
2013-07-02 06:38:00,72.9,71.4,29.98,ESE,111,2.0,7.0,95,0.11,,,0.60,Weather View 32 v70,2013-07-02 10:38:00,
2013-07-02 06:43:00,72.8,71.3,29.98,ESE,111,2.0,7.0,95,-0.11,,,0.60,Weather View 32 v70,2013-07-02 10:43:00,
2013-07-02 06:48:00,72.8,71.3,29.98,ESE,115,2.0,5.0,95,-0.12,,,0.60,Weather View 32 v70,2013-07-02 10:48:00,
2013-07-02 06:53:00,72.7,71.2,29.98,SE,133,3.0,7.0,95,0.03,,,0.60,Weather View 32 v70,2013-07-02 10:53:00,
2013-07-02 06:58:00,72.7,71.2,29.98,SE,133,1.0,7.0,95,0.00,,,0.60,Weather View 32 v70,2013-07-02 10:58:00,
2013-07-02 07:03:00,72.7,71.2,29.99,SE,134,0.0,7.0,95,0.00,,,0.60,Weather View 32 v70,2013-07-02 11:03:00,
2013-07-02 07:08:00,72.7,71.2,29.99,SE,133,0.0,7.0,95,0.00,,,0.60,Weather View 32 v70,2013-07-02 11:08:00,
2013-07-02 07:13:00,72.7,71.2,29.99,SE,134,0.0,7.0,95,0.00,,,0.60,Weather View 32 v70,2013-07-02 11:13:00,
2013-07-02 07:18:00,72.7,71.2,29.99,SE,136,0.0,7.0,95,0.00,,,0.60,Weather View 32 v70,2013-07-02 11:18:00,
2013-07-02 07:23:00,72.7,71.2,29.99,SE,137,0.0,7.0,95,0.00,,,0.60,Weather View 32 v70,2013-07-02 11:23:00,
2013-07-02 07:28:00,72.7,71.2,29.99,SE,137,0.0,7.0,95,0.00,,,0.60,Weather View 32 v70,2013-07-02 11:28:00,
2013-07-02 07:33:00,72.7,71.2,29.99,SE,137,0.0,7.0,95,0.00,,,0.60,Weather View 32 v70,2013-07-02 11:33:00,
2013-07-02 07:38:00,72.8,71.3,29.99,SE,136,0.0,7.0,95,0.00,,,0.60,Weather View 32 v70,2013-07-02 11:38:00,
2013-07-02 07:43:00,72.8,71.3,29.99,SE,136,2.0,7.0,95,0.00,,,0.60,Weather View 32 v70,2013-07-02 11:43:00,
2013-07-02 07:48:00,72.8,71.3,30.00,SE,136,1.0,7.0,95,0.00,,,0.60,Weather View 32 v70,2013-07-02 11:48:00,
2013-07-02 07:53:00,72.9,71.4,30.00,SE,136,0.0,5.0,95,0.00,,,0.60,Weather View 32 v70,2013-07-02 11:53:00,
2013-07-02 07:58:00,73.0,71.5,30.00,SE,135,0.0,5.0,95,0.00,,,0.60,Weather View 32 v70,2013-07-02 11:58:00,
2013-07-02 08:03:00,73.1,71.6,30.00,SE,134,0.0,5.0,95,0.00,,,0.60,Weather View 32 v70,2013-07-02 12:03:00,
2013-07-02 08:08:00,73.2,71.7,30.00,SE,135,0.0,5.0,95,0.00,,,0.60,Weather View 32 v70,2013-07-02 12:08:00,
2013-07-02 08:13:00,73.4,71.9,30.00,SE,134,0.0,5.0,95,0.00,,,0.60,Weather View 32 v70,2013-07-02 12:13:00,
2013-07-02 08:18:00,73.6,72.1,30.01,SE,135,0.0,5.0,95,0.00,,,0.60,Weather View 32 v70,2013-07-02 12:18:00,
2013-07-02 08:23:00,73.9,72.4,30.01,SE,135,3.0,5.0,95,0.00,,,0.60,Weather View 32 v70,2013-07-02 12:23:00,
2013-07-02 08:28:00,74.4,72.9,30.01,SE,133,0.0,7.0,95,0.00,,,0.60,Weather View 32 v70,2013-07-02 12:28:00,
2013-07-02 08:30:00,74.6,73.1,30.01,SE,129,0.0,7.0,95,0.00,,,0.60,Weather View 32 v70,2013-07-02 12:30:00,
2013-07-02 08:33:00,74.9,73.4,30.01,SE,126,2.0,7.0,95,0.00,,,0.60,Weather View 32 v70,2013-07-02 12:33:00,
2013-07-02 08:38:00,75.2,73.7,30.01,SE,125,5.0,8.0,95,0.00,,,0.60,Weather View 32 v70,2013-07-02 12:38:00,
2013-07-02 08:43:00,75.5,73.6,30.01,SE,126,0.0,8.0,94,0.00,,,0.60,Weather View 32 v70,2013-07-02 12:43:00,
2013-07-02 08:48:00,75.7,73.8,30.01,SE,128,4.0,8.0,94,0.00,,,0.60,Weather View 32 v70,2013-07-02 12:48:00,
2013-07-02 08:53:00,75.9,74.0,30.01,SE,133,0.0,8.0,94,0.00,,,0.60,Weather View 32 v70,2013-07-02 12:53:00,
2013-07-02 08:58:00,76.2,74.3,30.02,SE,131,2.0,8.0,94,0.00,,,0.60,Weather View 32 v70,2013-07-02 12:58:00,
2013-07-02 09:03:00,76.5,74.3,30.02,SE,130,0.0,8.0,93,0.00,,,0.60,Weather View 32 v70,2013-07-02 13:03:00,
2013-07-02 09:08:00,76.6,74.1,30.02,SE,132,0.0,8.0,92,0.00,,,0.60,Weather View 32 v70,2013-07-02 13:08:00,
2013-07-02 09:13:00,76.8,74.3,30.03,SE,132,0.0,8.0,92,0.00,,,0.60,Weather View 32 v70,2013-07-02 13:13:00,
2013-07-02 09:18:00,76.9,74.4,30.03,SE,130,0.0,8.0,92,0.00,,,0.60,Weather View 32 v70,2013-07-02 13:18:00,
2013-07-02 09:23:00,77.2,74.7,30.03,SE,130,0.0,8.0,92,0.00,,,0.60,Weather View 32 v70,2013-07-02 13:23:00,
2013-07-02 09:28:00,77.4,74.6,30.03,SE,131,0.0,8.0,91,0.00,,,0.60,Weather View 32 v70,2013-07-02 13:28:00,
2013-07-02 09:30:00,77.5,74.7,30.03,SE,131,6.0,8.0,91,0.00,,,0.60,Weather View 32 v70,2013-07-02 13:30:00,
2013-07-02 09:33:00,77.8,74.6,30.03,SE,130,3.0,8.0,90,0.00,,,0.60,Weather View 32 v70,2013-07-02 13:33:00,
2013-07-02 09:38:00,78.3,74.8,30.03,SE,131,0.0,8.0,89,0.00,,,0.60,Weather View 32 v70,2013-07-02 13:38:00,
2013-07-02 09:43:00,79.1,74.9,30.03,SE,131,0.0,8.0,87,0.00,,,0.60,Weather View 32 v70,2013-07-02 13:43:00,
2013-07-02 09:48:00,80.1,75.9,30.03,SE,129,0.0,8.0,87,0.00,,,0.60,Weather View 32 v70,2013-07-02 13:48:00,
2013-07-02 09:53:00,80.8,75.5,30.03,ESE,119,2.0,8.0,84,0.00,,,0.60,Weather View 32 v70,2013-07-02 13:53:00,
2013-07-02 09:58:00,80.8,75.8,30.02,SE,128,0.0,9.0,85,0.00,,,0.60,Weather View 32 v70,2013-07-02 13:58:00,
2013-07-02 10:03:00,80.9,75.9,30.03,SE,126,2.0,9.0,85,0.00,,,0.60,Weather View 32 v70,2013-07-02 14:03:00,
2013-07-02 10:08:00,81.1,76.1,30.02,SE,131,0.0,9.0,85,0.00,,,0.60,Weather View 32 v70,2013-07-02 14:08:00,
2013-07-02 10:13:00,81.4,76.1,30.02,SE,132,1.0,9.0,84,0.00,,,0.60,Weather View 32 v70,2013-07-02 14:13:00,
2013-07-02 10:18:00,81.6,75.9,30.02,SE,131,7.0,9.0,83,0.00,,,0.60,Weather View 32 v70,2013-07-02 14:18:00,
2013-07-02 10:23:00,81.6,75.9,30.02,SE,128,6.0,9.0,83,0.00,,,0.60,Weather View 32 v70,2013-07-02 14:23:00,
2013-07-02 10:28:00,81.4,75.3,30.02,SE,132,0.0,9.0,82,0.00,,,0.60,Weather View 32 v70,2013-07-02 14:28:00,
2013-07-02 10:30:00,81.5,75.8,30.02,SE,132,0.0,9.0,83,0.00,,,0.60,Weather View 32 v70,2013-07-02 14:30:00,
2013-07-02 10:33:00,81.5,75.8,30.02,SE,130,7.0,9.0,83,0.00,,,0.60,Weather View 32 v70,2013-07-02 14:33:00,
2013-07-02 10:38:00,81.5,75.8,30.02,SE,130,7.0,9.0,83,0.00,,,0.60,Weather View 32 v70,2013-07-02 14:38:00,
2013-07-02 10:43:00,82.0,76.3,30.02,SE,127,5.0,9.0,83,0.00,,,0.60,Weather View 32 v70,2013-07-02 14:43:00,
2013-07-02 10:48:00,82.4,76.0,30.02,SE,134,0.0,11.0,81,0.00,,,0.60,Weather View 32 v70,2013-07-02 14:48:00,
2013-07-02 10:53:00,83.1,77.0,30.02,SE,129,5.0,11.0,82,0.00,,,0.60,Weather View 32 v70,2013-07-02 14:53:00,
2013-07-02 10:58:00,83.9,76.7,30.02,SSW,199,0.0,11.0,79,0.00,,,0.60,Weather View 32 v70,2013-07-02 14:58:00,
2013-07-02 11:03:00,84.6,76.9,30.02,SSW,206,4.0,11.0,78,0.00,,,0.60,Weather View 32 v70,2013-07-02 15:03:00,
2013-07-02 11:08:00,85.4,76.9,30.02,SE,133,6.0,12.0,76,0.00,,,0.60,Weather View 32 v70,2013-07-02 15:08:00,
2013-07-02 11:13:00,85.8,76.9,30.02,SE,126,3.0,12.0,75,0.00,,,0.60,Weather View 32 v70,2013-07-02 15:13:00,
2013-07-02 11:18:00,86.3,77.4,30.02,SE,130,6.0,12.0,75,0.00,,,0.60,Weather View 32 v70,2013-07-02 15:18:00,
2013-07-02 11:23:00,86.4,76.3,30.02,ESE,123,5.0,12.0,72,0.00,,,0.60,Weather View 32 v70,2013-07-02 15:23:00,
2013-07-02 11:28:00,86.4,77.1,30.02,SSW,213,0.0,12.0,74,0.00,,,0.60,Weather View 32 v70,2013-07-02 15:28:00,
2013-07-02 11:30:00,86.5,76.8,30.02,South,184,0.0,12.0,73,0.00,,,0.60,Weather View 32 v70,2013-07-02 15:30:00,
2013-07-02 11:33:00,87.0,77.7,30.02,SSE,148,2.0,12.0,74,0.00,,,0.60,Weather View 32 v70,2013-07-02 15:33:00,
2013-07-02 11:38:00,87.4,77.6,30.02,SE,130,4.0,12.0,73,0.00,,,0.60,Weather View 32 v70,2013-07-02 15:38:00,
2013-07-02 11:43:00,87.7,77.1,30.02,SE,129,4.0,12.0,71,0.00,,,0.60,Weather View 32 v70,2013-07-02 15:43:00,
2013-07-02 11:48:00,87.6,77.8,30.02,SSE,168,0.0,12.0,73,0.00,,,0.60,Weather View 32 v70,2013-07-02 15:48:00,
2013-07-02 11:53:00,88.1,77.9,30.02,SSW,206,0.0,12.0,72,0.00,,,0.60,Weather View 32 v70,2013-07-02 15:53:00,
2013-07-02 11:58:00,88.9,78.2,30.02,SW,219,0.0,12.0,71,0.00,,,0.60,Weather View 32 v70,2013-07-02 15:58:00,
2013-07-02 12:03:00,89.3,77.7,30.02,SSW,196,0.0,12.0,69,0.00,,,0.60,Weather View 32 v70,2013-07-02 16:03:00,
2013-07-02 12:08:00,89.5,77.5,30.02,SSW,205,0.0,12.0,68,0.00,,,0.60,Weather View 32 v70,2013-07-02 16:08:00,
2013-07-02 12:13:00,89.0,76.6,30.03,SSW,200,0.0,12.0,67,0.00,,,0.60,Weather View 32 v70,2013-07-02 16:13:00,
2013-07-02 12:18:00,89.0,77.0,30.03,SSW,207,3.0,12.0,68,0.00,,,0.60,Weather View 32 v70,2013-07-02 16:18:00,
2013-07-02 12:23:00,88.9,75.6,30.03,SSW,210,3.0,12.0,65,0.00,,,0.60,Weather View 32 v70,2013-07-02 16:23:00,
2013-07-02 12:28:00,88.8,76.4,30.03,SW,219,0.0,12.0,67,0.00,,,0.60,Weather View 32 v70,2013-07-02 16:28:00,
2013-07-02 12:30:00,88.8,76.4,30.03,SW,214,6.0,12.0,67,0.00,,,0.60,Weather View 32 v70,2013-07-02 16:30:00,
2013-07-02 12:33:00,88.8,75.5,30.03,SSW,204,0.0,12.0,65,0.00,,,0.60,Weather View 32 v70,2013-07-02 16:33:00,
2013-07-02 12:38:00,89.4,76.5,30.03,SSW,207,5.0,12.0,66,0.00,,,0.60,Weather View 32 v70,2013-07-02 16:38:00,
2013-07-02 12:43:00,89.7,75.8,30.03,SW,217,4.0,12.0,64,0.00,,,0.60,Weather View 32 v70,2013-07-02 16:43:00,
2013-07-02 12:48:00,89.3,75.5,30.03,SW,222,4.0,12.0,64,0.00,,,0.60,Weather View 32 v70,2013-07-02 16:48:00,
2013-07-02 12:53:00,89.6,76.2,30.04,South,169,1.0,12.0,65,0.00,,,0.60,Weather View 32 v70,2013-07-02 16:53:00,
2013-07-02 12:58:00,90.1,76.2,30.04,SSW,205,1.0,12.0,64,0.00,,,0.60,Weather View 32 v70,2013-07-02 16:58:00,
2013-07-02 13:03:00,90.7,75.8,30.03,SSW,213,9.0,12.0,62,0.00,,,0.60,Weather View 32 v70,2013-07-02 17:03:00,
2013-07-02 13:08:00,90.6,76.2,30.03,SSW,200,0.0,12.0,63,0.00,,,0.60,Weather View 32 v70,2013-07-02 17:08:00,
2013-07-02 13:13:00,90.8,75.9,30.03,SSW,211,3.0,12.0,62,0.00,,,0.60,Weather View 32 v70,2013-07-02 17:13:00,
2013-07-02 13:18:00,90.8,76.9,30.03,SSW,205,2.0,12.0,64,0.00,,,0.60,Weather View 32 v70,2013-07-02 17:18:00,
2013-07-02 13:23:00,90.9,75.5,30.03,SSW,207,1.0,12.0,61,0.00,,,0.60,Weather View 32 v70,2013-07-02 17:23:00,
2013-07-02 13:28:00,90.5,76.1,30.03,SSW,194,2.0,13.0,63,0.00,,,0.60,Weather View 32 v70,2013-07-02 17:28:00,
2013-07-02 13:30:00,90.5,76.6,30.03,SSW,203,7.0,13.0,64,0.00,,,0.60,Weather View 32 v70,2013-07-02 17:30:00,
2013-07-02 13:33:00,90.7,77.7,30.03,South,182,2.0,13.0,66,0.00,,,0.60,Weather View 32 v70,2013-07-02 17:33:00,
2013-07-02 13:38:00,90.8,76.9,30.03,South,172,3.0,13.0,64,0.00,,,0.60,Weather View 32 v70,2013-07-02 17:38:00,
2013-07-02 13:43:00,91.0,76.1,30.02,SSW,210,3.0,13.0,62,0.00,,,0.60,Weather View 32 v70,2013-07-02 17:43:00,
2013-07-02 13:48:00,90.8,75.4,30.02,SSW,196,5.0,13.0,61,0.00,,,0.60,Weather View 32 v70,2013-07-02 17:48:00,
2013-07-02 13:53:00,90.1,75.7,30.02,SSW,205,2.0,13.0,63,0.00,,,0.60,Weather View 32 v70,2013-07-02 17:53:00,
2013-07-02 13:58:00,89.7,76.3,30.02,SSW,202,3.0,13.0,65,0.00,,,0.60,Weather View 32 v70,2013-07-02 17:58:00,
2013-07-02 14:03:00,89.9,76.5,30.01,SSW,212,4.0,13.0,65,0.00,,,0.60,Weather View 32 v70,2013-07-02 18:03:00,
2013-07-02 14:08:00,90.1,76.7,30.01,SSW,196,5.0,13.0,65,0.00,,,0.60,Weather View 32 v70,2013-07-02 18:08:00,
2013-07-02 14:13:00,89.7,76.8,30.02,SSW,202,0.0,13.0,66,0.00,,,0.60,Weather View 32 v70,2013-07-02 18:13:00,
2013-07-02 14:18:00,89.7,77.7,30.02,SSW,200,5.0,13.0,68,0.00,,,0.60,Weather View 32 v70,2013-07-02 18:18:00,
2013-07-02 14:24:00,90.1,78.1,30.01,SSW,202,0.0,13.0,68,0.00,,,0.60,Weather View 32 v70,2013-07-02 18:24:00,
2013-07-02 14:29:00,90.7,77.3,30.01,SSW,207,0.0,13.0,65,0.00,,,0.60,Weather View 32 v70,2013-07-02 18:29:00,
2013-07-02 14:30:00,90.7,76.8,30.01,SSW,193,5.0,13.0,64,0.00,,,0.60,Weather View 32 v70,2013-07-02 18:30:00,
2013-07-02 14:34:00,90.7,77.3,30.01,SSW,193,0.0,13.0,65,0.00,,,0.60,Weather View 32 v70,2013-07-02 18:34:00,
2013-07-02 14:39:00,90.6,77.6,30.01,SW,222,4.0,13.0,66,0.00,,,0.60,Weather View 32 v70,2013-07-02 18:39:00,
2013-07-02 14:44:00,90.3,77.8,30.01,SSW,200,1.0,12.0,67,0.00,,,0.60,Weather View 32 v70,2013-07-02 18:44:00,
2013-07-02 14:49:00,90.3,78.2,30.01,SSW,209,3.0,12.0,68,0.00,,,0.60,Weather View 32 v70,2013-07-02 18:49:00,
2013-07-02 14:54:00,90.2,77.7,30.01,WNW,290,4.0,11.0,67,0.00,,,0.60,Weather View 32 v70,2013-07-02 18:54:00,
2013-07-02 14:59:00,89.9,77.9,30.01,SSW,210,3.0,11.0,68,0.00,,,0.60,Weather View 32 v70,2013-07-02 18:59:00,
2013-07-02 15:04:00,89.7,77.7,30.01,SSW,207,4.0,11.0,68,0.00,,,0.60,Weather View 32 v70,2013-07-02 19:04:00,
2013-07-02 15:09:00,89.3,78.2,30.00,WSW,241,4.0,11.0,70,0.00,,,0.60,Weather View 32 v70,2013-07-02 19:09:00,
2013-07-02 15:14:00,89.2,78.5,30.00,SSW,200,5.0,11.0,71,0.00,,,0.60,Weather View 32 v70,2013-07-02 19:14:00,
2013-07-02 15:19:00,89.3,78.2,30.00,SSW,213,5.0,11.0,70,0.00,,,0.60,Weather View 32 v70,2013-07-02 19:19:00,
2013-07-02 15:24:00,89.0,78.3,30.00,SSW,213,3.0,11.0,71,0.00,,,0.60,Weather View 32 v70,2013-07-02 19:24:00,
2013-07-02 15:29:00,88.9,78.7,30.00,SW,222,5.0,11.0,72,0.00,,,0.60,Weather View 32 v70,2013-07-02 19:29:00,
2013-07-02 15:30:00,88.8,78.6,30.01,SSW,206,12.0,12.0,72,0.00,,,0.60,Weather View 32 v70,2013-07-02 19:30:00,
2013-07-02 15:34:00,88.5,78.3,30.01,SSW,211,4.0,12.0,72,0.00,,,0.60,Weather View 32 v70,2013-07-02 19:34:00,
2013-07-02 15:39:00,87.4,76.8,30.01,WSW,240,5.0,12.0,71,0.00,,,0.60,Weather View 32 v70,2013-07-02 19:39:00,
2013-07-02 15:44:00,86.8,76.6,30.00,WSW,248,3.0,12.0,72,0.00,,,0.60,Weather View 32 v70,2013-07-02 19:44:00,
2013-07-02 15:49:00,86.8,76.6,30.00,SSW,207,5.0,12.0,72,0.00,,,0.60,Weather View 32 v70,2013-07-02 19:49:00,
2013-07-02 15:54:00,86.8,76.2,30.00,SW,236,4.0,12.0,71,0.00,,,0.60,Weather View 32 v70,2013-07-02 19:54:00,
2013-07-02 15:59:00,86.2,76.1,30.00,West,261,3.0,12.0,72,0.00,,,0.60,Weather View 32 v70,2013-07-02 19:59:00,
2013-07-02 16:04:00,86.0,76.3,30.00,SSW,207,8.0,12.0,73,0.00,,,0.60,Weather View 32 v70,2013-07-02 20:04:00,
2013-07-02 16:09:00,86.5,76.8,30.00,South,191,7.0,12.0,73,0.00,,,0.60,Weather View 32 v70,2013-07-02 20:09:00,
2013-07-02 16:14:00,86.6,76.9,30.01,SSW,203,0.0,12.0,73,0.00,,,0.60,Weather View 32 v70,2013-07-02 20:14:00,
2013-07-02 16:19:00,86.3,76.2,30.00,SSW,212,4.0,12.0,72,0.00,,,0.60,Weather View 32 v70,2013-07-02 20:19:00,
2013-07-02 16:24:00,86.0,75.0,30.00,SSW,203,1.0,12.0,70,0.00,,,0.60,Weather View 32 v70,2013-07-02 20:24:00,
2013-07-02 16:29:00,85.7,73.0,30.00,SE,128,3.0,12.0,66,0.00,,,0.60,Weather View 32 v70,2013-07-02 20:29:00,
2013-07-02 16:30:00,85.7,73.0,30.00,South,183,4.0,12.0,66,0.00,,,0.60,Weather View 32 v70,2013-07-02 20:30:00,
2013-07-02 16:34:00,85.0,73.6,30.01,ESE,117,4.0,12.0,69,0.00,,,0.60,Weather View 32 v70,2013-07-02 20:34:00,
2013-07-02 16:39:00,83.6,74.4,30.01,SE,138,4.0,14.0,74,0.00,,,0.60,Weather View 32 v70,2013-07-02 20:39:00,
2013-07-02 16:44:00,83.0,74.2,30.02,SE,134,10.0,14.0,75,0.00,,,0.60,Weather View 32 v70,2013-07-02 20:44:00,
2013-07-02 16:49:00,81.8,73.5,30.02,SE,133,9.0,16.0,76,0.00,,,0.60,Weather View 32 v70,2013-07-02 20:49:00,
2013-07-02 16:54:00,80.7,73.2,30.02,SE,128,7.0,16.0,78,0.00,,,0.60,Weather View 32 v70,2013-07-02 20:54:00,
2013-07-02 17:00:00,80.3,73.2,30.01,ESE,115,3.0,16.0,79,0.00,,,0.60,Weather View 32 v70,2013-07-02 21:00:00,
2013-07-02 17:05:00,79.8,73.1,30.01,ESE,102,4.0,16.0,80,0.00,,,0.60,Weather View 32 v70,2013-07-02 21:05:00,
2013-07-02 17:10:00,79.4,73.0,30.01,SE,126,0.0,16.0,81,0.00,,,0.60,Weather View 32 v70,2013-07-02 21:10:00,
2013-07-02 17:15:00,79.2,72.5,30.01,SE,129,1.0,16.0,80,0.00,,,0.60,Weather View 32 v70,2013-07-02 21:15:00,
2013-07-02 17:20:00,79.1,72.4,30.01,ESE,115,3.0,16.0,80,0.00,,,0.60,Weather View 32 v70,2013-07-02 21:20:00,
2013-07-02 17:25:00,79.2,72.5,30.01,ESE,106,5.0,16.0,80,0.00,,,0.60,Weather View 32 v70,2013-07-02 21:25:00,
2013-07-02 17:30:00,78.9,72.2,30.00,SE,133,3.0,16.0,80,0.00,,,0.60,Weather View 32 v70,2013-07-02 21:30:00,
2013-07-02 17:35:00,78.8,72.4,30.00,ESE,117,0.0,16.0,81,0.00,,,0.60,Weather View 32 v70,2013-07-02 21:35:00,
2013-07-02 17:40:00,78.8,72.4,30.00,ESE,113,4.0,16.0,81,0.00,,,0.60,Weather View 32 v70,2013-07-02 21:40:00,
2013-07-02 17:45:00,78.8,72.8,30.00,East,87,6.0,16.0,82,0.00,,,0.60,Weather View 32 v70,2013-07-02 21:45:00,
2013-07-02 17:50:00,78.7,72.7,30.00,ESE,102,1.0,14.0,82,0.00,,,0.60,Weather View 32 v70,2013-07-02 21:50:00,
2013-07-02 17:55:00,78.8,73.2,30.00,ESE,103,0.0,14.0,83,0.00,,,0.60,Weather View 32 v70,2013-07-02 21:55:00,
2013-07-02 18:00:00,78.8,72.8,30.00,SE,146,4.0,14.0,82,0.00,,,0.60,Weather View 32 v70,2013-07-02 22:00:00,
2013-07-02 18:05:00,78.6,72.3,30.00,SE,133,5.0,14.0,81,0.00,,,0.60,Weather View 32 v70,2013-07-02 22:05:00,
2013-07-02 18:10:00,78.4,72.4,30.00,SE,128,4.0,12.0,82,0.00,,,0.60,Weather View 32 v70,2013-07-02 22:10:00,
2013-07-02 18:15:00,78.2,72.2,30.00,East,99,3.0,12.0,82,0.00,,,0.60,Weather View 32 v70,2013-07-02 22:15:00,
2013-07-02 18:20:00,78.0,72.4,30.01,ESE,122,4.0,12.0,83,0.00,,,0.60,Weather View 32 v70,2013-07-02 22:20:00,
2013-07-02 18:25:00,78.0,72.4,30.01,SE,136,3.0,12.0,83,0.00,,,0.60,Weather View 32 v70,2013-07-02 22:25:00,
2013-07-02 18:30:00,78.2,72.6,30.01,SE,130,0.0,12.0,83,0.00,,,0.60,Weather View 32 v70,2013-07-02 22:30:00,
2013-07-02 18:35:00,78.1,72.5,30.01,SE,129,0.0,12.0,83,0.00,,,0.60,Weather View 32 v70,2013-07-02 22:35:00,
2013-07-02 18:40:00,78.2,72.6,30.02,SE,132,6.0,12.0,83,0.00,,,0.60,Weather View 32 v70,2013-07-02 22:40:00,
2013-07-02 18:45:00,78.2,72.9,30.02,ESE,123,5.0,12.0,84,0.00,,,0.60,Weather View 32 v70,2013-07-02 22:45:00,
2013-07-02 18:50:00,78.2,72.9,30.02,SE,128,8.0,12.0,84,0.00,,,0.60,Weather View 32 v70,2013-07-02 22:50:00,
2013-07-02 18:55:00,78.1,73.2,30.02,ESE,123,5.0,12.0,85,0.00,,,0.60,Weather View 32 v70,2013-07-02 22:55:00,
2013-07-02 19:00:00,78.2,73.3,30.02,SE,132,5.0,12.0,85,0.00,,,0.60,Weather View 32 v70,2013-07-02 23:00:00,
2013-07-02 19:05:00,78.2,73.6,30.02,SE,126,6.0,10.0,86,0.00,,,0.60,Weather View 32 v70,2013-07-02 23:05:00,
2013-07-02 19:10:00,78.3,73.7,30.03,SE,134,4.0,10.0,86,0.00,,,0.60,Weather View 32 v70,2013-07-02 23:10:00,
2013-07-02 19:15:00,78.4,73.5,30.03,ESE,122,3.0,10.0,85,0.00,,,0.60,Weather View 32 v70,2013-07-02 23:15:00,
2013-07-02 19:20:00,78.4,73.5,30.03,SE,133,0.0,10.0,85,0.00,,,0.60,Weather View 32 v70,2013-07-02 23:20:00,
2013-07-02 19:25:00,78.3,73.4,30.03,ESE,115,2.0,10.0,85,0.00,,,0.60,Weather View 32 v70,2013-07-02 23:25:00,
2013-07-02 19:29:00,78.1,73.5,30.03,SE,126,6.0,10.0,86,0.00,,,0.60,Weather View 32 v70,2013-07-02 23:29:00,
2013-07-02 19:30:00,78.1,73.5,30.03,SE,128,2.0,10.0,86,0.00,,,0.60,Weather View 32 v70,2013-07-02 23:30:00,
2013-07-02 19:34:00,77.9,73.4,30.03,SE,131,0.0,10.0,86,0.00,,,0.60,Weather View 32 v70,2013-07-02 23:34:00,
2013-07-02 19:39:00,77.7,73.5,30.03,SE,137,3.0,10.0,87,0.00,,,0.60,Weather View 32 v70,2013-07-02 23:39:00,
2013-07-02 19:44:00,77.6,73.4,30.04,ESE,121,0.0,10.0,87,0.00,,,0.60,Weather View 32 v70,2013-07-02 23:44:00,
2013-07-02 19:49:00,77.6,73.7,30.04,SE,129,4.0,10.0,88,0.00,,,0.60,Weather View 32 v70,2013-07-02 23:49:00,
2013-07-02 19:54:00,77.4,73.5,30.05,SE,130,0.0,10.0,88,0.00,,,0.60,Weather View 32 v70,2013-07-02 23:54:00,
2013-07-02 19:55:00,77.3,73.4,30.05,SE,130,0.0,10.0,88,0.00,,,0.60,Weather View 32 v70,2013-07-02 23:55:00,
2013-07-02 20:00:00,77.2,73.7,30.05,SE,128,2.0,10.0,89,0.00,,,0.60,Weather View 32 v70,2013-07-03 00:00:00,
2013-07-02 20:01:00,77.1,73.6,30.04,SE,128,3.0,10.0,89,0.00,,,0.60,Weather View 32 v70,2013-07-03 00:01:00,
2013-07-02 20:06:00,76.9,73.7,30.05,SE,130,5.0,10.0,90,0.01,,,0.61,Weather View 32 v70,2013-07-03 00:06:00,
2013-07-02 20:11:00,76.8,73.6,30.05,SE,130,0.0,10.0,90,0.01,,,0.61,Weather View 32 v70,2013-07-03 00:11:00,
2013-07-02 20:16:00,76.8,73.6,30.05,East,95,0.0,10.0,90,0.01,,,0.61,Weather View 32 v70,2013-07-03 00:16:00,
2013-07-02 20:21:00,76.7,73.9,30.05,ESE,103,0.0,9.0,91,0.01,,,0.61,Weather View 32 v70,2013-07-03 00:21:00,
2013-07-02 20:24:00,76.6,73.8,30.05,ESE,102,0.0,9.0,91,0.01,,,0.61,Weather View 32 v70,2013-07-03 00:24:00,
2013-07-02 20:28:00,76.5,73.7,30.05,East,94,0.0,9.0,91,0.01,,,0.61,Weather View 32 v70,2013-07-03 00:28:00,
2013-07-02 20:30:00,76.5,73.7,30.05,East,94,2.0,9.0,91,0.01,,,0.61,Weather View 32 v70,2013-07-03 00:30:00,
2013-07-02 20:33:00,76.4,73.6,30.06,East,94,1.0,9.0,91,0.01,,,0.61,Weather View 32 v70,2013-07-03 00:33:00,
2013-07-02 20:38:00,76.3,73.5,30.06,East,95,0.0,7.0,91,0.01,,,0.61,Weather View 32 v70,2013-07-03 00:38:00,
2013-07-02 20:43:00,76.2,73.4,30.05,ESE,111,0.0,6.0,91,0.01,,,0.61,Weather View 32 v70,2013-07-03 00:43:00,
2013-07-02 20:48:00,76.2,73.4,30.05,ESE,119,3.0,7.0,91,0.01,,,0.61,Weather View 32 v70,2013-07-03 00:48:00,
2013-07-02 20:53:00,76.2,73.4,30.05,ESE,122,2.0,7.0,91,0.01,,,0.61,Weather View 32 v70,2013-07-03 00:53:00,
2013-07-02 20:58:00,76.1,73.3,30.06,ESE,116,0.0,8.0,91,0.01,,,0.61,Weather View 32 v70,2013-07-03 00:58:00,
2013-07-02 21:00:00,76.2,73.4,30.06,ESE,117,3.0,8.0,91,0.01,,,0.61,Weather View 32 v70,2013-07-03 01:00:00,
2013-07-02 21:03:00,76.2,73.4,30.05,SE,132,3.0,8.0,91,0.00,,,0.61,Weather View 32 v70,2013-07-03 01:03:00,
2013-07-02 21:08:00,76.2,73.4,30.05,SE,134,0.0,8.0,91,0.00,,,0.61,Weather View 32 v70,2013-07-03 01:08:00,
2013-07-02 21:09:00,76.2,73.4,30.05,SE,134,3.0,8.0,91,0.00,,,0.61,Weather View 32 v70,2013-07-03 01:09:00,
2013-07-02 21:14:00,76.2,73.4,30.06,ESE,117,0.0,8.0,91,0.00,,,0.61,Weather View 32 v70,2013-07-03 01:14:00,
2013-07-02 21:19:00,76.3,73.8,30.05,SE,126,5.0,8.0,92,0.00,,,0.61,Weather View 32 v70,2013-07-03 01:19:00,
2013-07-02 21:24:00,76.4,73.9,30.05,ESE,120,2.0,9.0,92,0.00,,,0.61,Weather View 32 v70,2013-07-03 01:24:00,
2013-07-02 21:27:00,76.5,74.0,30.05,ESE,121,2.0,9.0,92,0.00,,,0.61,Weather View 32 v70,2013-07-03 01:27:00,
2013-07-02 21:30:00,76.5,73.7,30.05,ESE,121,2.0,9.0,91,0.00,,,0.61,Weather View 32 v70,2013-07-03 01:30:00,
2013-07-02 21:32:00,76.6,73.8,30.05,SE,124,1.0,9.0,91,0.00,,,0.61,Weather View 32 v70,2013-07-03 01:32:00,
2013-07-02 21:37:00,76.6,73.8,30.05,SE,128,4.0,9.0,91,0.00,,,0.61,Weather View 32 v70,2013-07-03 01:37:00,
2013-07-02 21:42:00,76.7,73.9,30.05,SE,133,5.0,9.0,91,0.00,,,0.61,Weather View 32 v70,2013-07-03 01:42:00,
2013-07-02 21:47:00,76.7,73.9,30.05,ESE,123,3.0,9.0,91,0.00,,,0.61,Weather View 32 v70,2013-07-03 01:47:00,
2013-07-02 21:49:00,76.7,73.9,30.05,SE,125,2.0,9.0,91,0.00,,,0.61,Weather View 32 v70,2013-07-03 01:49:00,
2013-07-02 21:50:00,76.7,73.9,30.05,SE,125,0.0,9.0,91,0.00,,,0.61,Weather View 32 v70,2013-07-03 01:50:00,
2013-07-02 21:55:00,76.7,73.9,30.05,SE,126,0.0,9.0,91,0.00,,,0.61,Weather View 32 v70,2013-07-03 01:55:00,
2013-07-02 22:00:00,76.7,73.9,30.05,SE,128,0.0,9.0,91,0.00,,,0.61,Weather View 32 v70,2013-07-03 02:00:00,
2013-07-02 22:05:00,76.6,73.8,30.05,SE,128,2.0,9.0,91,0.00,,,0.61,Weather View 32 v70,2013-07-03 02:05:00,
2013-07-02 22:10:00,76.6,73.8,30.05,SE,127,0.0,9.0,91,0.00,,,0.61,Weather View 32 v70,2013-07-03 02:10:00,
2013-07-02 22:15:00,76.6,73.8,30.06,SE,128,0.0,9.0,91,0.93,,,0.61,Weather View 32 v70,2013-07-03 02:15:00,
2013-07-02 22:21:00,76.5,73.7,30.05,SE,128,0.0,9.0,91,0.00,,,0.61,Weather View 32 v70,2013-07-03 02:21:00,
2013-07-02 22:26:00,76.5,73.3,30.05,SE,128,0.0,7.0,90,0.00,,,0.61,Weather View 32 v70,2013-07-03 02:26:00,
2013-07-02 22:30:00,76.4,73.2,30.05,SE,130,0.0,7.0,90,0.00,,,0.61,Weather View 32 v70,2013-07-03 02:30:00,
2013-07-02 22:31:00,76.4,73.2,30.05,SE,129,1.0,7.0,90,0.00,,,0.61,Weather View 32 v70,2013-07-03 02:31:00,
2013-07-02 22:32:00,76.4,72.9,30.05,SE,129,0.0,7.0,89,0.00,,,0.61,Weather View 32 v70,2013-07-03 02:32:00,
2013-07-02 22:37:00,76.4,72.9,30.05,SE,130,3.0,7.0,89,0.00,,,0.61,Weather View 32 v70,2013-07-03 02:37:00,
2013-07-02 22:42:00,76.4,72.6,30.05,SE,130,0.0,7.0,88,0.00,,,0.61,Weather View 32 v70,2013-07-03 02:42:00,
2013-07-02 22:46:00,76.4,72.6,30.05,SE,130,2.0,7.0,88,0.00,,,0.61,Weather View 32 v70,2013-07-03 02:46:00,
2013-07-02 22:51:00,76.3,72.5,30.06,SE,131,0.0,6.0,88,0.00,,,0.61,Weather View 32 v70,2013-07-03 02:51:00,
2013-07-02 22:56:00,76.3,72.5,30.06,SE,132,4.0,6.0,88,0.00,,,0.61,Weather View 32 v70,2013-07-03 02:56:00,
2013-07-02 23:02:00,76.2,72.0,30.06,SE,126,0.0,7.0,87,0.00,,,0.61,Weather View 32 v70,2013-07-03 03:02:00,
2013-07-02 23:07:00,76.1,71.9,30.07,SE,126,1.0,7.0,87,0.00,,,0.61,Weather View 32 v70,2013-07-03 03:07:00,
2013-07-02 23:12:00,76.0,72.2,30.07,SE,130,0.0,7.0,88,0.00,,,0.61,Weather View 32 v70,2013-07-03 03:12:00,
2013-07-02 23:17:00,75.9,72.1,30.07,SE,129,3.0,8.0,88,0.00,,,0.61,Weather View 32 v70,2013-07-03 03:17:00,
2013-07-02 23:20:00,75.9,72.1,30.07,SE,130,0.0,8.0,88,0.00,,,0.61,Weather View 32 v70,2013-07-03 03:20:00,
2013-07-02 23:25:00,75.8,72.3,30.07,ESE,119,5.0,8.0,89,0.00,,,0.61,Weather View 32 v70,2013-07-03 03:25:00,
2013-07-02 23:30:00,75.8,72.3,30.07,SE,126,5.0,8.0,89,0.00,,,0.61,Weather View 32 v70,2013-07-03 03:30:00,
2013-07-02 23:35:00,75.7,72.2,30.07,SE,129,5.0,8.0,89,0.00,,,0.61,Weather View 32 v70,2013-07-03 03:35:00,
2013-07-02 23:36:00,75.7,72.2,30.07,SE,130,4.0,8.0,89,0.00,,,0.61,Weather View 32 v70,2013-07-03 03:36:00,
2013-07-02 23:39:00,75.7,72.5,30.07,SE,128,0.0,8.0,90,0.00,,,0.61,Weather View 32 v70,2013-07-03 03:39:00,
2013-07-02 23:44:00,75.6,72.4,30.07,ESE,123,3.0,8.0,90,0.00,,,0.61,Weather View 32 v70,2013-07-03 03:44:00,
2013-07-02 23:49:00,75.6,72.4,30.07,SE,128,2.0,8.0,90,0.00,,,0.61,Weather View 32 v70,2013-07-03 03:49:00,
2013-07-02 23:54:00,75.5,72.3,30.06,SE,126,0.0,8.0,90,0.00,,,0.61,Weather View 32 v70,2013-07-03 03:54:00,
2013-07-02 23:59:00,75.6,72.8,30.06,SE,129,0.0,8.0,91,-0.61,,,0.00,Weather View 32 v70,2013-07-03 03:59:00,